Bishops Head, MD NWLON current weather conditions

sailwx.info

Wind from 304 at 18 knots gusting 26

Air temperature 2.2° C
Water temperature 3.3° C

Last reported at 2016-Dec-10 00:36 UTC.
Time now 2016-Dec-10 01:13 UTC

Location: N 38°13' W 076°02'.
View on Google Maps.

See reports from other nearby stations

  
Tides and Currents Weather Stations Pressure Air Temp Water Temp Dewpoint Dewpoint Depression Visibility Wind Speed Wind Dir Waves Ship Positions
date/time (UTC)wind fromknots sea level pressurealtimeterstation pressurevisibilityair tempwater tempwave heightnotes
2016-Dec-10 00:36 304 18 gusting 26 2.2 3.3
2016-Dec-10 00:30 303 22 gusting 26 2.2 3.3
2016-Dec-10 00:24 303 20 gusting 26 2.2 3.3
2016-Dec-10 00:18 303 22 gusting 25 2.2 3.3
2016-Dec-10 00:12 303 19 gusting 26 2.2 3.3
2016-Dec-10 00:06 300 21 gusting 26 2.8 3.3
2016-Dec-10 00:00 299 22 gusting 26 2.8 3.3
2016-Dec-09 23:54 294 21 gusting 27 2.8 3.3
2016-Dec-09 23:48 298 20 gusting 24 2.8 3.3
2016-Dec-09 23:42 297 20 gusting 26 2.8 3.3
2016-Dec-09 23:36 297 23 gusting 26 2.8 3.3
2016-Dec-09 23:30 296 19 gusting 25 2.8 3.9
2016-Dec-09 23:24 298 21 gusting 26 2.8 3.9
2016-Dec-09 23:18 301 19 gusting 25 2.8 3.9
2016-Dec-09 23:12 297 20 gusting 24 2.8 3.3
2016-Dec-09 23:06 302 14 gusting 23 2.8 3.3
2016-Dec-09 23:00 313 17 gusting 19 2.8 3.9
2016-Dec-09 22:54 308 17 gusting 19 2.8 3.9
2016-Dec-09 22:48 311 15 gusting 21 2.8 3.9
2016-Dec-09 22:42 305 18 gusting 22 2.8 3.9
2016-Dec-09 22:36 306 19 gusting 24 2.8 3.9
2016-Dec-09 22:30 301 21 gusting 26 3.3 3.9
2016-Dec-09 22:24 302 18 gusting 23 3.3 3.9
2016-Dec-09 22:18 300 19 gusting 23 3.3 3.9
2016-Dec-09 22:12 305 15 gusting 24 3.3 4.4
2016-Dec-09 22:06 305 19 gusting 22 3.3 4.4
2016-Dec-09 22:00 303 18 gusting 23 3.3 4.4
2016-Dec-09 21:54 301 15 gusting 19 3.3 4.4
2016-Dec-09 21:48 306 16 gusting 19 3.3 4.4
2016-Dec-09 21:42 313 12 gusting 19 2.8 4.4
2016-Dec-09 21:36 314 13 gusting 20 3.3 4.4
2016-Dec-09 21:30 312 17 gusting 19 3.3 3.9
2016-Dec-09 21:24 310 14 gusting 19 3.3 3.9
2016-Dec-09 21:18 303 13 gusting 20 3.3 3.9
2016-Dec-09 21:12 308 14 gusting 21 3.3 3.9
2016-Dec-09 21:06 312 18 gusting 22 3.3 3.9
2016-Dec-09 21:00 309 14 gusting 22 3.3 3.9
2016-Dec-09 20:54 301 18 gusting 22 3.9 3.9
2016-Dec-09 20:48 309 17 gusting 21 3.9 3.9
2016-Dec-09 20:42 304 16 gusting 19 3.9 3.9
2016-Dec-09 20:36 313 16 gusting 19 3.9 3.9
2016-Dec-09 20:30 310 14 gusting 21 3.9 3.9
2016-Dec-09 20:24 309 17 gusting 22 3.9 3.9
2016-Dec-09 20:18 315 18 gusting 19 3.3 3.9
2016-Dec-09 20:12 306 16 gusting 21 3.9 3.9
2016-Dec-09 20:06 301 15 gusting 19 3.9 3.9
2016-Dec-09 20:00 312 15 gusting 23 3.9 3.9
2016-Dec-09 19:54 313 16 gusting 22 3.9 3.9
2016-Dec-09 19:48 304 18 gusting 22 3.9 3.9
2016-Dec-09 19:42 307 19 gusting 22 3.9 3.9
2016-Dec-09 19:36 304 20 gusting 22 3.3 3.9
2016-Dec-09 19:30 304 17 gusting 23 3.3 3.9
2016-Dec-09 19:24 313 16 gusting 22 3.9 3.9
2016-Dec-09 19:18 309 19 gusting 24 3.3 3.9
2016-Dec-09 19:12 304 17 gusting 20 3.3 3.9
2016-Dec-09 19:06 312 13 gusting 19 3.9 3.9
2016-Dec-09 19:00 308 16 gusting 20 3.9 3.9
2016-Dec-09 18:54 301 15 gusting 19 3.3 3.9
2016-Dec-09 18:48 312 14 gusting 21 3.3 3.9
2016-Dec-09 18:42 301 16 gusting 24 3.3 3.9
2016-Dec-09 18:36 311 17 gusting 21 3.3 3.9
2016-Dec-09 18:30 310 19 gusting 23 3.3 3.9
2016-Dec-09 18:24 298 18 gusting 23 3.3 3.9
2016-Dec-09 18:18 295 19 gusting 22 3.3 3.9
2016-Dec-09 18:12 302 17 gusting 22 3.3 3.9
2016-Dec-09 18:06 316 18 gusting 21 3.3 3.9
2016-Dec-09 18:00 305 18 gusting 22 3.3 3.9
2016-Dec-09 17:54 308 18 gusting 23 2.8 3.9
2016-Dec-09 17:48 310 19 gusting 25 3.3 3.9
2016-Dec-09 17:42 313 13 gusting 19 3.3 3.9
2016-Dec-09 17:36 301 14 gusting 19 2.8 3.9
2016-Dec-09 17:30 306 13 gusting 21 2.8 3.9
2016-Dec-09 17:24 311 19 gusting 23 2.8 3.9
2016-Dec-09 17:18 301 19 gusting 23 2.8 3.9
2016-Dec-09 17:12 310 17 gusting 22 2.8 3.9
2016-Dec-09 17:06 312 16 gusting 21 2.8 3.9
2016-Dec-09 17:00 310 16 gusting 22 2.2 3.9
2016-Dec-09 16:54 307 17 gusting 21 2.2 3.9
2016-Dec-09 16:48 310 18 gusting 22 2.2 3.3
2016-Dec-09 16:42 306 18 gusting 25 2.2 3.3
2016-Dec-09 16:36 301 19 gusting 23 2.2 3.3
2016-Dec-09 16:30 297 19 gusting 23 1.7 3.3
2016-Dec-09 16:24 304 16 gusting 19 2.2 3.3
2016-Dec-09 16:18 309 16 gusting 23 1.7 3.3
2016-Dec-09 16:12 306 17 gusting 21 1.7 3.3
2016-Dec-09 16:06 315 18 gusting 22 1.7 3.3
2016-Dec-09 16:00 310 16 gusting 21 1.7 3.3
2016-Dec-09 15:54 304 18 gusting 21 1.7 3.3
2016-Dec-09 15:48 315 13 gusting 22 1.7 3.3
2016-Dec-09 15:42 309 16 gusting 24 1.7 3.3
2016-Dec-09 15:36 310 19 gusting 24 1.7 3.3
2016-Dec-09 15:30 309 20 gusting 24 1.1 3.3
2016-Dec-09 15:24 310 19 gusting 24 1.1 3.3
2016-Dec-09 15:18 301 21 gusting 26 1.1 3.3
2016-Dec-09 15:12 308 16 gusting 23 1.1 3.3
2016-Dec-09 15:06 313 19 gusting 22 1.1 3.3
2016-Dec-09 15:00 307 19 gusting 24 1.1 3.3
2016-Dec-09 14:54 306 18 gusting 23 1.1 3.3
2016-Dec-09 14:48 304 19 gusting 23 0.6 3.3
2016-Dec-09 14:42 316 19 gusting 23 0.6 3.3
2016-Dec-09 14:36 320 19 gusting 24 0.6 3.3
2016-Dec-09 14:30 315 20 gusting 25 0.6 3.3
2016-Dec-09 14:24 316 19 gusting 22 0.6 3.3
2016-Dec-09 14:18 310 17 gusting 24 0.6 3.3
2016-Dec-09 14:12 308 19 gusting 25 0.6 3.3
2016-Dec-09 14:06 307 20 gusting 25 0.6 3.3
2016-Dec-09 14:00 304 19 gusting 24 0.6 3.3
2016-Dec-09 13:54 308 19 gusting 25 0.6 3.3
2016-Dec-09 13:48 303 19 gusting 21 0.6 3.3
2016-Dec-09 13:42 312 16 gusting 24 0.6 3.3
2016-Dec-09 13:36 304 20 gusting 23 0.6 3.3
2016-Dec-09 13:30 311 16 gusting 21 0.6 3.3
2016-Dec-09 13:24 309 19 gusting 22 0.6 3.3
2016-Dec-09 13:18 309 15 gusting 21 0.6 3.3
2016-Dec-09 13:12 308 15 gusting 21 0.6 3.3
2016-Dec-09 13:06 314 17 gusting 22 -0.0 3.3
2016-Dec-09 13:00 318 18 gusting 24 -0.0 3.3
2016-Dec-09 12:54 324 16 gusting 20 -0.0 3.3
2016-Dec-09 12:48 325 13 gusting 20 -0.0 3.3
2016-Dec-09 12:42 326 14 gusting 19 -0.0 3.3
2016-Dec-09 12:36 320 15 gusting 17 -0.0 3.3
2016-Dec-09 12:30 321 13 gusting 21 -0.6 3.3
2016-Dec-09 12:24 320 15 gusting 19 -0.6 3.3
2016-Dec-09 12:18 321 13 gusting 19 -0.6 3.3
2016-Dec-09 12:12 317 13 gusting 16 -0.6 3.3
2016-Dec-09 12:06 318 14 gusting 19 -0.6 3.3
2016-Dec-09 12:00 319 13 gusting 18 -0.6 3.3
2016-Dec-09 11:54 326 13 gusting 16 -0.6 3.3
2016-Dec-09 11:48 324 13 gusting 17 -0.6 3.3
2016-Dec-09 11:42 324 11 gusting 17 -0.6 3.3
2016-Dec-09 11:36 325 12 gusting 18 -0.6 3.3
2016-Dec-09 11:30 325 14 gusting 18 -0.6 3.3
2016-Dec-09 11:24 326 13 gusting 18 -0.6 3.3
2016-Dec-09 11:18 317 15 gusting 21 -0.0 3.3
2016-Dec-09 11:12 315 16 gusting 19 -0.0 3.3
2016-Dec-09 11:06 320 14 gusting 19 -0.6 3.3
2016-Dec-09 11:00 324 13 gusting 19 -0.6 3.3
2016-Dec-09 10:54 321 14 gusting 19 -0.6 3.3
2016-Dec-09 10:48 321 16 gusting 21 -0.0 3.3
2016-Dec-09 10:42 321 15 gusting 19 -0.0 3.3
2016-Dec-09 10:36 319 11 gusting 22 -0.0 3.3
2016-Dec-09 10:30 321 15 gusting 19 -0.0 3.3
2016-Dec-09 10:24 314 16 gusting 19 -0.0 3.3
2016-Dec-09 10:18 316 16 gusting 22 -0.0 3.3
2016-Dec-09 10:12 316 15 gusting 23 -0.0 3.3
2016-Dec-09 10:06 322 19 gusting 26 0.6 3.3
2016-Dec-09 10:00 310 22 gusting 25 0.6 3.3
2016-Dec-09 09:54 314 18 gusting 24 0.6 3.9
2016-Dec-09 09:48 315 16 gusting 23 0.6 3.9
2016-Dec-09 09:42 318 19 gusting 26 0.6 3.9
2016-Dec-09 09:36 317 17 gusting 24 0.6 3.9
2016-Dec-09 09:30 323 14 gusting 26 0.6 4.4
2016-Dec-09 09:24 316 21 gusting 26 0.6 4.4
2016-Dec-09 09:18 317 20 gusting 26 0.6 4.4
2016-Dec-09 09:12 311 20 gusting 26 0.6 4.4
2016-Dec-09 09:06 310 18 gusting 27 0.6 4.4
2016-Dec-09 09:00 313 20 gusting 26 1.1 4.4
2016-Dec-09 08:54 314 19 gusting 26 1.1 5.0
2016-Dec-09 08:48 314 17 gusting 22 1.1 5.0
2016-Dec-09 08:42 314 18 gusting 25 1.1 5.0
2016-Dec-09 08:36 318 16 gusting 25 1.1 5.6
2016-Dec-09 08:30 308 19 gusting 26 1.1 5.6
2016-Dec-09 08:24 304 19 gusting 22 1.7 5.6
2016-Dec-09 08:18 304 19 gusting 25 1.7 5.6
2016-Dec-09 08:12 305 19 gusting 25 1.7 5.6
2016-Dec-09 08:06 308 17 gusting 25 1.7 5.6
2016-Dec-09 08:00 305 18 gusting 25 1.7 5.6
2016-Dec-09 07:54 296 21 gusting 26 1.7 5.6
2016-Dec-09 07:48 305 21 gusting 26 1.7 5.6
2016-Dec-09 07:42 304 20 gusting 26 1.7 5.6
2016-Dec-09 07:36 304 22 gusting 26 1.7 5.6
2016-Dec-09 07:30 303 20 gusting 27 1.7 6.1
2016-Dec-09 07:24 303 22 gusting 27 2.2 6.1
2016-Dec-09 07:18 305 22 gusting 26 1.7 6.1
2016-Dec-09 07:12 308 19 gusting 24 1.7 6.1
2016-Dec-09 07:06 313 18 gusting 22 1.7 6.1
2016-Dec-09 07:00 309 16 gusting 19 1.7 6.1
2016-Dec-09 06:54 324 13 gusting 25 1.7 6.1
2016-Dec-09 06:48 314 17 gusting 18 1.7 6.1
2016-Dec-09 06:42 307 15 gusting 19 1.7 6.1
2016-Dec-09 06:36 316 14 gusting 19 1.1 6.1
2016-Dec-09 06:30 318 13 gusting 18 1.1 6.7
2016-Dec-09 06:24 323 10 gusting 13 1.1 6.7
2016-Dec-09 06:18 329 11 gusting 15 1.1 6.7
2016-Dec-09 06:12 325 10 gusting 14 1.1 6.7
2016-Dec-09 06:06 324 11 gusting 13 1.1 6.7
2016-Dec-09 06:00 328 11 gusting 14 1.1 6.7
2016-Dec-09 05:54 330 11 gusting 22 1.7 6.7
2016-Dec-09 05:48 322 14 gusting 21 1.7 6.7
2016-Dec-09 05:42 319 16 gusting 21 1.7 6.7
2016-Dec-09 05:36 321 18 gusting 23 1.7 6.7
2016-Dec-09 05:30 325 15 gusting 25 1.7 6.7
2016-Dec-09 05:24 319 19 gusting 26 2.2 6.7
2016-Dec-09 05:18 319 19 gusting 26 2.2 6.7
2016-Dec-09 05:12 317 18 gusting 26 2.2 6.7
2016-Dec-09 05:06 321 13 gusting 19 1.7 6.7
2016-Dec-09 05:00 329 13 gusting 18 1.7 6.7
2016-Dec-09 04:54 326 12 gusting 19 1.7 7.2
2016-Dec-09 04:48 322 13 gusting 17 2.2 6.7
2016-Dec-09 04:42 324 13 gusting 15 2.2 6.7
2016-Dec-09 04:36 326 11 gusting 15 2.2 6.7
2016-Dec-09 04:30 331 11 gusting 18 2.2 6.7
2016-Dec-09 04:24 326 13 gusting 18 2.2 6.7
2016-Dec-09 04:18 327 14 gusting 22 2.2 6.7
2016-Dec-09 04:12 335 13 gusting 19 2.2 7.2
2016-Dec-09 04:06 334 14 gusting 19 2.8 7.2
2016-Dec-09 04:00 331 14 gusting 20 2.8 7.2
2016-Dec-09 03:54 337 10 gusting 19 2.8 7.2
2016-Dec-09 03:48 334 13 gusting 21 2.8 7.2
2016-Dec-09 03:42 328 12 gusting 19 3.3 7.2
2016-Dec-09 03:36 335 13 gusting 18 3.3 7.2
2016-Dec-09 03:30 328 13 gusting 19 3.3 7.2
2016-Dec-09 03:24 327 15 gusting 19 3.9 7.2
2016-Dec-09 03:18 328 14 gusting 22 3.9 7.2
2016-Dec-09 03:12 322 15 gusting 22 4.4 7.2
2016-Dec-09 03:06 323 15 gusting 22 4.4 7.2
2016-Dec-09 03:00 322 17 gusting 19 4.4 7.2
2016-Dec-09 02:54 315 13 gusting 19 4.4 7.2
2016-Dec-09 02:48 323 16 gusting 18 4.4 7.2
2016-Dec-09 02:42 322 14 gusting 19 4.4 7.2
2016-Dec-09 02:36 323 13 gusting 17 5.0 7.2
2016-Dec-09 02:30 324 12 gusting 21 5.0 7.2
2016-Dec-09 02:24 320 17 gusting 20 5.0 7.8
2016-Dec-09 02:18 320 13 gusting 17 5.0 7.8
2016-Dec-09 02:12 322 11 gusting 20 5.6 7.8
2016-Dec-09 02:06 313 15 gusting 21 5.6 7.8
2016-Dec-09 02:00 310 18 gusting 22 5.6 7.8
2016-Dec-09 01:54 313 14 gusting 22 5.6 7.8
2016-Dec-09 01:48 316 19 gusting 26 6.1 7.8
2016-Dec-09 01:42 312 14 gusting 22 6.1 7.8
2016-Dec-09 01:36 313 19 gusting 25 6.1 7.8
2016-Dec-09 01:30 315 16 gusting 21 6.1 7.8
2016-Dec-09 01:24 310 15 gusting 22 6.7 7.8
2016-Dec-09 01:18 309 17 gusting 22 6.7 7.8
2016-Dec-09 01:12 309 15 gusting 22 6.7 7.8
2016-Dec-09 01:06 313 16 gusting 17 6.7 7.8
2016-Dec-09 01:00 316 14 gusting 22 6.7 7.8
2016-Dec-09 00:54 311 14 gusting 26 6.7 7.8
2016-Dec-09 00:48 308 18 gusting 24 6.7 7.8
2016-Dec-09 00:42 306 19 gusting 20 6.7 7.8
2016-Dec-09 00:36 311 16 gusting 20 6.7 7.8
2016-Dec-09 00:30 308 17 gusting 20 7.2 7.8
2016-Dec-09 00:24 305 16 gusting 20 7.2 7.8
2016-Dec-09 00:18 314 13 gusting 18 7.2 7.8
2016-Dec-09 00:12 309 14 gusting 19 7.2 7.8
2016-Dec-09 00:06 308 16 gusting 17 7.2 7.8
2016-Dec-09 00:00 307 13 gusting 18 7.2 7.8
2016-Dec-08 23:54 313 14 gusting 18 7.2 7.8
2016-Dec-08 23:48 306 14 gusting 19 7.8 7.8
2016-Dec-08 23:42 301 16 gusting 19 8.3 7.8
2016-Dec-08 23:36 298 15 gusting 18 8.3 7.8
2016-Dec-08 23:30 299 16 gusting 19 8.3 7.8
2016-Dec-08 23:24 293 16 gusting 20 8.3 7.8
2016-Dec-08 23:18 296 17 gusting 20 8.3 7.8
2016-Dec-08 23:12 285 18 gusting 19 8.3 7.8
2016-Dec-08 23:06 288 17 gusting 20 8.3 7.8
2016-Dec-08 23:00 285 17 gusting 19 8.3 7.8
2016-Dec-08 22:54 281 16 gusting 19 8.3 7.8
2016-Dec-08 22:48 282 16 gusting 18 8.3 8.3
2016-Dec-08 22:42 282 14 gusting 18 8.3 8.3
2016-Dec-08 22:36 285 16 gusting 19 8.3 8.3
2016-Dec-08 22:30 284 14 gusting 16 8.3 8.3
2016-Dec-08 22:24 279 14 gusting 16 8.3 8.3
2016-Dec-08 22:18 282 14 gusting 18 8.3 8.3
2016-Dec-08 22:12 287 15 gusting 18 8.3 8.3
2016-Dec-08 22:06 285 15 gusting 16 8.3 8.3
2016-Dec-08 22:00 291 13 gusting 16 8.3 8.3
2016-Dec-08 21:54 294 16 gusting 19 8.3 8.3
2016-Dec-08 21:48 296 17 gusting 19 8.3 8.3
2016-Dec-08 21:42 295 17 gusting 21 8.3 8.3
2016-Dec-08 21:36 294 18 gusting 20 8.3 8.3
2016-Dec-08 21:30 308 6 gusting 11 7.8 8.3
2016-Dec-08 21:24 305 6 gusting 8 7.8 8.3
2016-Dec-08 21:18 281 4 gusting 4 7.2 8.3
2016-Dec-08 21:12 248 3 gusting 4 7.2 8.3
2016-Dec-08 21:06 262 4 gusting 5 7.2 8.3
2016-Dec-08 21:00 245 5 gusting 6 7.2 8.3
2016-Dec-08 20:54 242 5 gusting 6 7.2 8.3
2016-Dec-08 20:48 243 6 gusting 9 7.2 8.3
2016-Dec-08 20:42 242 7 gusting 9 7.2 8.3
2016-Dec-08 20:36 244 7 gusting 8 7.2 8.3
2016-Dec-08 20:30 239 6 gusting 8 7.2 8.3
2016-Dec-08 20:24 237 7 gusting 10 7.2 8.3
2016-Dec-08 20:18 238 6 gusting 8 7.2 8.3
2016-Dec-08 20:12 236 6 gusting 8 7.2 8.3
2016-Dec-08 20:06 238 6 gusting 6 6.7 8.3
2016-Dec-08 20:00 241 6 gusting 7 6.7 8.3
2016-Dec-08 19:54 237 6 gusting 6 6.7 8.3
2016-Dec-08 19:48 233 6 gusting 7 6.7 8.3
2016-Dec-08 19:42 231 6 gusting 7 6.7 8.3
2016-Dec-08 19:36 227 6 gusting 6 6.7 8.3
2016-Dec-08 19:30 219 5 gusting 6 6.7 8.3
2016-Dec-08 19:24 217 6 gusting 7 6.7 8.3
2016-Dec-08 19:18 216 5 gusting 6 6.7 8.3
2016-Dec-08 19:12 217 6 gusting 6 6.7 8.3
2016-Dec-08 19:06 175 3 gusting 5 6.1 7.8
2016-Dec-08 19:00 173 3 gusting 6 6.1 7.8
2016-Dec-08 18:54 177 3 gusting 5 6.1 7.8
2016-Dec-08 18:48 170 4 gusting 4 6.1 7.8
2016-Dec-08 18:42 168 3 gusting 4 6.1 7.8
2016-Dec-08 18:36 164 1 gusting 2 6.1 7.8
2016-Dec-08 18:30 174 1 gusting 2 6.7 7.8
2016-Dec-08 18:24 167 1 gusting 2 6.1 8.3
2016-Dec-08 18:18 183 0 gusting 1 6.1 7.8
2016-Dec-08 18:12 245 6.1 8.3
2016-Dec-08 18:06 282 0 gusting 1 6.1 8.3
2016-Dec-08 18:00 351 1 gusting 2 6.1 8.3
2016-Dec-08 17:54 017 1 gusting 4 5.6 8.3
2016-Dec-08 17:48 347 3 gusting 4 5.6 8.3
2016-Dec-08 17:42 330 1 gusting 2 6.1 8.3
2016-Dec-08 17:36 345 0 gusting 2 6.1 8.3
2016-Dec-08 17:30 332 0 gusting 2 6.1 8.3
2016-Dec-08 17:24 005 2 gusting 3 5.6 8.3
2016-Dec-08 17:18 003 1 gusting 2 5.6 8.3
2016-Dec-08 17:12 024 1 gusting 2 5.6 8.3
2016-Dec-08 17:06 021 5.6 8.3
2016-Dec-08 17:00 359 0 gusting 9 5.6 7.8
2016-Dec-08 16:54 331 7 gusting 9 5.6 7.8
2016-Dec-08 16:48 051 1 gusting 3 5.6 7.8
2016-Dec-08 16:42 092 3 gusting 4 5.6 7.8
2016-Dec-08 16:36 081 2 gusting 3 5.6 7.8
2016-Dec-08 16:30 009 0 gusting 2 5.6 7.8
2016-Dec-08 16:24 354 1 gusting 3 5.6 7.8
2016-Dec-08 16:18 343 2 gusting 4 6.1 7.8
2016-Dec-08 16:12 003 1 gusting 3 6.1 7.8
2016-Dec-08 16:06 356 2 gusting 5 6.1 7.8
2016-Dec-08 16:00 335 2 gusting 3 6.1 7.8
2016-Dec-08 15:54 342 2 gusting 4 6.7 7.8
2016-Dec-08 15:48 348 2 gusting 4 6.7 7.8
2016-Dec-08 15:42 347 2 gusting 3 6.7 7.8
2016-Dec-08 15:36 359 2 gusting 4 6.7 7.8
2016-Dec-08 15:30 346 3 gusting 4 6.7 8.3
2016-Dec-08 15:24 331 3 gusting 3 6.7 8.3
2016-Dec-08 15:18 003 2 gusting 6 6.7 8.3
2016-Dec-08 15:12 006 4 gusting 6 6.7 8.3
2016-Dec-08 15:06 334 3 gusting 5 6.1 8.3
2016-Dec-08 15:00 349 3 gusting 6 6.7 8.3
2016-Dec-08 14:54 001 4 gusting 6 6.1 8.3
2016-Dec-08 14:48 329 2 gusting 4 6.1 8.3
2016-Dec-08 14:42 339 2 gusting 5 6.7 8.3
2016-Dec-08 14:36 348 3 gusting 6 6.7 8.3
2016-Dec-08 14:30 357 3 gusting 6 6.7 8.3
2016-Dec-08 14:24 360 4 gusting 6 6.1 8.3
2016-Dec-08 14:18 356 5 gusting 6 6.1 8.3
2016-Dec-08 14:12 354 3 gusting 6 6.1 8.3
2016-Dec-08 14:06 360 3 gusting 5 6.1 8.3
2016-Dec-08 14:00 004 3 gusting 6 6.1 8.3
2016-Dec-08 13:54 005 4 gusting 6 6.1 8.3
2016-Dec-08 13:48 009 3 gusting 5 6.1 8.3
2016-Dec-08 13:42 009 3 gusting 6 6.1 8.3
2016-Dec-08 13:36 008 3 gusting 5 6.1 8.3
2016-Dec-08 13:30 013 2 gusting 4 6.1 8.3
2016-Dec-08 13:24 006 2 gusting 3 6.1 8.3
2016-Dec-08 13:18 002 2 gusting 4 6.1 8.3
2016-Dec-08 13:12 010 2 gusting 3 6.1 8.3
2016-Dec-08 13:06 346 2 gusting 4 6.1 8.3
2016-Dec-08 13:00 007 2 gusting 3 6.1 8.3
2016-Dec-08 12:54 003 3 gusting 4 6.1 8.3
2016-Dec-08 12:48 008 3 gusting 4 6.1 8.3
2016-Dec-08 12:42 009 2 gusting 3 6.1 8.3
2016-Dec-08 12:36 017 1 gusting 3 6.1 8.3
2016-Dec-08 12:30 011 2 gusting 4 6.1 7.8
2016-Dec-08 12:24 007 3 gusting 3 5.6 7.8
2016-Dec-08 12:18 010 2 gusting 3 6.1 7.8
2016-Dec-08 12:12 001 2 gusting 3 6.1 7.8
2016-Dec-08 12:06 007 2 gusting 2 6.1 7.8
2016-Dec-08 12:00 019 1 gusting 3 6.1 7.8
2016-Dec-08 11:54 009 2 gusting 2 6.1 7.8
2016-Dec-08 11:48 010 1 gusting 3 6.1 7.8
2016-Dec-08 11:42 016 1 gusting 2 5.6 7.8
2016-Dec-08 11:36 028 2 gusting 3 5.6 7.8
2016-Dec-08 11:30 012 2 gusting 3 5.6 7.8
2016-Dec-08 11:24 007 2 gusting 4 5.6 7.8
2016-Dec-08 11:18 006 3 gusting 4 5.6 7.8
2016-Dec-08 11:12 013 2 gusting 4 5.6 7.8
2016-Dec-08 11:06 015 2 gusting 5 5.6 7.8
2016-Dec-08 11:00 010 4 gusting 6 5.6 7.8
2016-Dec-08 10:54 010 4 gusting 5 5.6 7.8
2016-Dec-08 10:48 017 3 gusting 6 5.6 7.8
2016-Dec-08 10:42 344 4 gusting 4 6.7 7.8
2016-Dec-08 10:36 308 4 gusting 5 7.8 7.8
2016-Dec-08 10:30 288 4 gusting 5 7.8 7.8
2016-Dec-08 10:24 273 5 gusting 6 7.8 7.8
2016-Dec-08 10:18 274 6 gusting 6 7.8 7.8
2016-Dec-08 10:12 281 6 gusting 6 7.8 7.8
2016-Dec-08 10:06 285 6 gusting 6 7.8 7.8
2016-Dec-08 10:00 273 6 gusting 6 8.3 7.8
2016-Dec-08 09:54 273 5 gusting 6 8.3 7.8
2016-Dec-08 09:48 264 5 gusting 6 8.3 7.8
2016-Dec-08 09:42 275 5 gusting 6 8.3 7.8
2016-Dec-08 09:36 273 5 gusting 6 8.3 7.8
2016-Dec-08 09:30 271 6 gusting 6 8.3 7.8
2016-Dec-08 09:24 270 6 gusting 7 8.3 8.3
2016-Dec-08 09:18 258 7 gusting 7 8.3 8.3
2016-Dec-08 09:12 254 6 gusting 7 8.3 8.3
2016-Dec-08 09:06 249 6 gusting 6 8.3 8.3
2016-Dec-08 09:00 248 6 gusting 6 8.3 8.3
2016-Dec-08 08:54 232 5 gusting 5 7.8 8.3
2016-Dec-08 08:48 230 4 gusting 5 7.8 8.3
2016-Dec-08 08:42 222 4 gusting 5 7.8 8.3
2016-Dec-08 08:36 214 3 gusting 4 7.8 8.3
2016-Dec-08 08:30 212 3 gusting 4 7.8 8.3
2016-Dec-08 08:24 216 3 gusting 3 7.8 8.3
2016-Dec-08 08:18 214 3 gusting 4 7.8 8.3
2016-Dec-08 08:12 210 3 gusting 4 7.8 8.3
2016-Dec-08 08:06 202 3 gusting 4 7.8 8.3
2016-Dec-08 08:00 193 3 gusting 4 7.8 8.3
2016-Dec-08 07:54 195 4 gusting 5 7.8 8.3
2016-Dec-08 07:48 191 4 gusting 4 7.8 8.3
2016-Dec-08 07:42 190 4 gusting 5 7.8 8.3
2016-Dec-08 07:36 194 4 gusting 5 7.8 8.3
2016-Dec-08 07:30 188 5 gusting 5 7.8 8.3
2016-Dec-08 07:24 194 4 gusting 4 7.8 8.3
2016-Dec-08 07:18 190 3 gusting 4 7.8 8.3
2016-Dec-08 07:12 188 3 gusting 3 7.8 8.3
2016-Dec-08 07:06 182 3 gusting 4 7.8 8.3
2016-Dec-08 07:00 182 3 gusting 4 7.8 8.3
2016-Dec-08 06:54 177 3 gusting 4 7.8 8.3
2016-Dec-08 06:48 185 4 gusting 5 7.8 8.3
2016-Dec-08 06:42 185 3 gusting 3 7.8 8.3
2016-Dec-08 06:36 183 3 gusting 3 7.8 8.3
2016-Dec-08 06:30 187 2 gusting 3 7.8 8.3
2016-Dec-08 06:24 189 2 gusting 4 7.8 8.3
2016-Dec-08 06:18 199 3 gusting 4 7.8 8.3
2016-Dec-08 06:12 200 3 gusting 4 7.8 8.3
2016-Dec-08 06:06 200 4 gusting 4 7.8 8.3
2016-Dec-08 06:00 192 3 gusting 4 7.8 8.3
2016-Dec-08 05:54 202 3 gusting 3 7.8 8.3
2016-Dec-08 05:48 202 3 gusting 4 7.8 8.3
2016-Dec-08 05:42 191 3 gusting 4 7.8 8.3
2016-Dec-08 05:36 188 4 gusting 5 7.8 8.3
2016-Dec-08 05:30 182 4 gusting 5 7.8 8.3
2016-Dec-08 05:24 184 4 gusting 5 7.8 8.3
2016-Dec-08 05:18 177 4 gusting 5 7.8 8.3
2016-Dec-08 05:12 179 4 gusting 5 7.8 8.3
2016-Dec-08 05:06 183 5 gusting 5 7.8 8.3
2016-Dec-08 05:00 185 5 gusting 5 7.8 8.3
2016-Dec-08 04:54 188 4 gusting 4 7.8 8.3
2016-Dec-08 04:48 196 4 gusting 4 7.8 8.3
2016-Dec-08 04:42 205 3 gusting 3 7.8 8.3
2016-Dec-08 04:36 202 2 gusting 3 7.2 8.3
2016-Dec-08 04:30 197 1 gusting 2 7.8 8.3
2016-Dec-08 04:24 186 0 gusting 1 7.8 8.9
2016-Dec-08 04:18 184 1 gusting 1 7.8 8.9
2016-Dec-08 04:12 183 1 gusting 1 7.8 8.9
2016-Dec-08 04:06 195 1 gusting 2 7.2 8.9
2016-Dec-08 04:00 184 1 gusting 2 7.8 8.9
2016-Dec-08 03:54 198 1 gusting 1 7.8 8.9
2016-Dec-08 03:48 242 0 gusting 1 7.8 8.9
2016-Dec-08 03:42 239 1 gusting 1 7.8 8.9
2016-Dec-08 03:36 242 0 gusting 0 7.2 8.9
2016-Dec-08 03:30 011 7.2 8.9
2016-Dec-08 03:24 011 7.2 8.9
2016-Dec-08 03:18 011 7.2 8.9
2016-Dec-08 03:12 016 0 gusting 1 7.2 8.9
2016-Dec-08 03:06 289 7.2 8.9
2016-Dec-08 03:00 288 7.2 8.9
2016-Dec-08 02:54 288 7.2 8.9
2016-Dec-08 02:48 288 0 gusting 0 7.8 8.9
2016-Dec-08 02:42 296 0 gusting 0 7.8 8.9
2016-Dec-08 02:36 287 0 gusting 1 7.8 8.9
2016-Dec-08 02:30 276 0 gusting 1 7.8 8.9
2016-Dec-08 02:24 294 0 gusting 1 7.8 8.9
2016-Dec-08 02:18 315 0 gusting 1 7.2 8.9
2016-Dec-08 02:12 305 7.2 8.9
2016-Dec-08 02:06 278 0 gusting 0 7.2 8.9
2016-Dec-08 02:00 316 7.2 8.9
2016-Dec-08 01:54 337 7.2 8.9
2016-Dec-08 01:48 341 6.7 8.9
2016-Dec-08 01:42 351 0 gusting 0 6.7 8.9
2016-Dec-08 01:36 340 0 gusting 0 6.7 8.9
2016-Dec-08 01:30 342 0 gusting 0 6.7 8.9
2016-Dec-08 01:24 001 6.7 8.9
2016-Dec-08 01:18 358 0 gusting 1 6.7 8.9
2016-Dec-08 01:12 328 1 gusting 1 6.7 8.9
2016-Dec-08 01:06 329 1 gusting 2 6.7 8.9
2016-Dec-08 01:00 333 2 gusting 3 6.7 8.9